Change the Weather History Date:

Tuesday, November 25, 2014

  Actual Average Record
Temperature  
Mean Temperature 82 °F 71 °F  
Max Temperature 85 °F 79 °F 88 °F (1947)
Min Temperature 79 °F 64 °F 36 °F (1917)
Degree Days  
Heating Degree Days 0 1  
Month to date heating degree days 10 4  
Since 1 July heating degree days 10 5  
Cooling Degree Days 17 7  
Month to date cooling degree days 191 211  
Year to date cooling degree days 4127 3832  
Growing Degree Days 32 (Base 50)    
Moisture  
Dew Point 74 °F    
Average Humidity 78    
Maximum Humidity 91    
Minimum Humidity 65    
Precipitation  
Precipitation 0.00 in 0.13 in 5.16 in (2000)
Month to date precipitation 1.80 4.09  
Year to date precipitation 59.39 58.29  
Snow  
Snow 0.00 in - - ()
Month to date snowfall 0.0  
Since 1 July snowfall 0.0  
Since 1 September snowfall 0.0  
Snow Depth 0.00 in    
Sea Level Pressure  
Sea Level Pressure 29.98 in    
Wind  
Wind Speed 14 mph (SSE)    
Max Wind Speed 25 mph    
Max Gust Speed 33 mph    
Visibility 10 miles    
Events      
T = Trace of Precipitation, MM = Missing Value Source: NWS Daily Summary

Daily Weather History Graph

Daily Weather History Graph

Search for Another Location

Airport or City:

Trip Planner

Search our weather history database for the weather conditions in past years. The results will help you decide how hot, cold, wet, or windy it might be!

Date:

Astronomy

Nov. 25, 2014 Rise Set
Actual Time 6:47 AM EST 5:27 PM EST
Civil Twilight 6:22 AM EST 5:52 PM EST
Nautical Twilight 5:53 AM EST 6:20 PM EST
Astronomical Twilight 5:26 AM EST 6:48 PM EST
Moon 9:34 AM EST (11/25) 8:46 PM EST (11/25)
Length of Visible Light 11h 29m
Length of Day
10h 40m
Waxing Crescent, 12% of the Moon is Illuminated
Nov 25
Waxing Crescent
Nov 29
First Quarter
Dec 6
Full
Dec 14
Last Quarter
Dec 21
New

Hourly Weather History & Observations

Time (EST) Temp. Heat Index Dew Point Humidity Pressure Visibility Wind Dir Wind Speed Gust Speed Precip Events Conditions
12:24 AM 80.1 °F 85.8 °F 77.0 °F 90% 30.03 in 10.0 mi SSE 6.9 mph - N/A   Mostly Cloudy
12:53 AM 80.1 °F 85.8 °F 77.0 °F 90% 30.02 in 10.0 mi South 8.1 mph - N/A   Mostly Cloudy
1:03 AM 80.1 °F 85.8 °F 77.0 °F 90% 30.02 in 10.0 mi SSE 8.1 mph - N/A   Scattered Clouds
1:53 AM 80.1 °F 85.4 °F 75.9 °F 87% 30.01 in 10.0 mi SSE 9.2 mph - N/A   Scattered Clouds
2:53 AM 80.1 °F 85.4 °F 75.9 °F 87% 30.01 in 10.0 mi SSE 9.2 mph - N/A   Scattered Clouds
3:53 AM 80.1 °F 85.4 °F 75.9 °F 87% 30.00 in 10.0 mi SSE 10.4 mph - N/A   Scattered Clouds
4:53 AM 79.0 °F - 75.0 °F 88% 30.00 in 10.0 mi SSE 10.4 mph - N/A   Scattered Clouds
5:53 AM 79.0 °F - 75.0 °F 88% 30.01 in 10.0 mi SSE 11.5 mph - N/A   Scattered Clouds
6:53 AM 79.0 °F - 75.0 °F 88% 30.01 in 10.0 mi SSE 13.8 mph - N/A   Mostly Cloudy
7:53 AM 80.1 °F 85.1 °F 75.0 °F 85% 30.03 in 10.0 mi SSE 16.1 mph - N/A   Mostly Cloudy
8:53 AM 81.0 °F 85.8 °F 73.0 °F 77% 30.04 in 10.0 mi SSE 17.3 mph - N/A   Mostly Cloudy
9:53 AM 82.0 °F 86.7 °F 72.0 °F 71% 30.03 in 10.0 mi SSE 20.7 mph - N/A   Mostly Cloudy
10:53 AM 84.0 °F 90.2 °F 73.0 °F 69% 30.01 in 10.0 mi SSE 21.9 mph - N/A   Mostly Cloudy
11:53 AM 84.0 °F 89.6 °F 72.0 °F 67% 29.98 in 10.0 mi SSE 25.3 mph 29.9 mph N/A   Mostly Cloudy
12:21 PM 84.0 °F 90.2 °F 73.0 °F 69% 29.97 in 10.0 mi SSE 21.9 mph 29.9 mph N/A   Mostly Cloudy
12:53 PM 82.9 °F 88.0 °F 72.0 °F 69% 29.95 in 10.0 mi SSE 25.3 mph 32.2 mph N/A   Mostly Cloudy
1:25 PM 84.0 °F 89.6 °F 72.0 °F 67% 29.94 in 10.0 mi South 17.3 mph 27.6 mph N/A   Mostly Cloudy
1:53 PM 84.0 °F 89.6 °F 72.0 °F 67% 29.93 in 10.0 mi South 16.1 mph 26.5 mph N/A   Mostly Cloudy
2:53 PM 82.9 °F 88.8 °F 73.0 °F 72% 29.91 in 10.0 mi South 17.3 mph 27.6 mph N/A   Mostly Cloudy
3:53 PM 82.9 °F 88.8 °F 73.0 °F 72% 29.91 in 10.0 mi South 18.4 mph - N/A   Mostly Cloudy
4:53 PM 82.0 °F 87.4 °F 73.0 °F 74% 29.92 in 10.0 mi South 16.1 mph 24.2 mph N/A   Mostly Cloudy
5:53 PM 81.0 °F 86.2 °F 73.9 °F 79% 29.94 in 10.0 mi South 10.4 mph 19.6 mph N/A   Mostly Cloudy
6:53 PM 80.1 °F 84.5 °F 73.9 °F 81% 29.95 in 10.0 mi South 9.2 mph - N/A   Scattered Clouds
7:53 PM 80.1 °F 85.1 °F 75.0 °F 85% 29.96 in 10.0 mi South 11.5 mph - N/A   Partly Cloudy
8:53 PM 80.1 °F 85.1 °F 75.0 °F 85% 29.96 in 10.0 mi South 8.1 mph - N/A   Partly Cloudy
9:53 PM 79.0 °F - 75.0 °F 88% 29.96 in 10.0 mi South 9.2 mph - N/A   Partly Cloudy
10:53 PM 79.0 °F - 75.0 °F 88% 29.95 in 10.0 mi South 9.2 mph - N/A   Scattered Clouds
11:37 PM 79.0 °F - 75.0 °F 88% 29.93 in 10.0 mi SSE 9.2 mph - N/A   Mostly Cloudy
11:53 PM 80.1 °F 85.4 °F 75.9 °F 87% 29.92 in 10.0 mi SSE 11.5 mph - N/A   Mostly Cloudy